Location: Recife
(8.0585°S, 34.8848°W)
Time: 09:14:12
(UTC-03:00)

Courier 1B Rocket - Pass Details

Date: 16 April 2026
Orbit: 920 x 1201 km, 28.2° (Epoch: 13 May)

Event Time Altitude Azimuth Distance (km) Brightness Sun altitude
Rises 11:21:18 0° 228° (SW) 3,963 8.1 71.7°
Reaches altitude 10° 11:24:34 10° 216° (SW) 3,043 7.6 71.6°
Maximum altitude 11:30:47 27° 161° (SSE) 2,103 6.9 71.5°
Drops below altitude 10° 11:37:09 10° 106° (ESE) 3,129 7.7 71.1°
Sets 11:40:33 0° 94° (E) 4,094 8.2 70.9°
